This is the latest recevied weather packets stored in our database for station/object W4DHW-4. If no packets are shown the sender has not sent any weather packets the latest 10 day(s).
| Time | Temp. | Humidity | Pressure | Rain* | Wind** | Luminosity | Snow |
|---|---|---|---|---|---|---|---|
| 1777406049 | 17.22° C | 78% | 1016.6 hPa | 0 mm | - | 156 W/m² | - |
| 1777405746 | 17.78° C | 78% | 1016.5 hPa | 0 mm | - | 232 W/m² | - |
| 1777405442 | 17.22° C | 79% | 1016.9 hPa | 0 mm | - | 189 W/m² | - |
| 1777405139 | 17.22° C | 80% | 1016.9 hPa | 0 mm | - | 280 W/m² | - |
| 1777404838 | 17.22° C | 79% | 1016.7 hPa | 0 mm | - | 251 W/m² | - |
| 1777404534 | 17.22° C | 79% | 1017.1 hPa | 0 mm | - | 231 W/m² | - |
| 1777404230 | 17.78° C | 78% | 1017 hPa | 0 mm | - | 781 W/m² | - |
| 1777403927 | 17.22° C | 78% | 1017.2 hPa | 0 mm | - | 478 W/m² | - |
| 1777403626 | 18.33° C | 76% | 1017.2 hPa | 0 mm | - | 452 W/m² | - |
| 1777403321 | 18.89° C | 73% | 1017.3 hPa | 0 mm | - | 391 W/m² | - |
| 1777403016 | 18.33° C | 74% | 1017.5 hPa | 0 mm | - | 355 W/m² | - |
| 1777402711 | 18.89° C | 73% | 1017.5 hPa | 0 mm | - | 457 W/m² | - |
| 1777402405 | 18.33° C | 73% | 1017.5 hPa | 0 mm | - | 701 W/m² | - |
| 1777402104 | 18.33° C | 74% | 1017.5 hPa | 0 mm | - | 895 W/m² | - |
| 1777401800 | 18.33° C | 74% | 1017.5 hPa | 0 mm | - | 623 W/m² | - |
| 1777401499 | 18.33° C | 74% | 1017.6 hPa | 0 mm | - | 472 W/m² | - |
| 1777401195 | 18.33° C | 75% | 1017.4 hPa | 0 mm | - | 874 W/m² | - |
| 1777400891 | 17.78° C | 75% | 1017.5 hPa | 0 mm | - | 806 W/m² | - |
| 1777400587 | 17.78° C | 75% | 1017.5 hPa | 0 mm | - | 419 W/m² | - |
| 1777400285 | 17.78° C | 76% | 1017.7 hPa | 0 mm | - | 670 W/m² | - |
| 1777399980 | 17.78° C | 76% | 1017.7 hPa | 0 mm | - | 587 W/m² | - |
| 1777399677 | 17.22° C | 78% | 1017.7 hPa | 0 mm | - | 469 W/m² | - |
| 1777399374 | 17.22° C | 77% | 1017.9 hPa | 0 mm | - | 370 W/m² | - |
| 1777399072 | 16.67° C | 77% | 1017.8 hPa | 0 mm | - | 481 W/m² | - |
| 1777398769 | 16.67° C | 77% | 1018.1 hPa | 0 mm | - | 430 W/m² | - |
* Rain latest hour (hover to see other rain measurements)
** Current wind speed in m/s (hover to see current wind gust speed)